Torna al catalogo

ONEWEB-0490

AttivoComunicazioniPO
NORAD 54113·PAYLOAD·🇬🇧 United Kingdom

Lanciato Oct 22, 2022 da Satish Dhawan Space Centre

Loading…

Prossimi Passaggi (prossime 24 ore)

TLE

AggiornatoSource: CelesTrak SupGP

Epoca: Sep 14, 2026, 21:49 UTC

1 54113C 22138A   26257.90917083  .00001904  00000+0  47627-2 0  2577
2 54113  87.9113 287.0961 0001978  87.9487 307.9174 13.19722773    10

Traccia ONEWEB-0490 in tempo reale con AllMySat

Download on the App Store